• In Österreich
  • Länderverzeichnis
  • Für 7 Tage
  • Wassertemperatur
  • Satellitenkarten
  • Wetterkarte
  • News
  • Widgets
  • user-avatar
    Anmelden

    Stündliche Wetter Golkowo

    Heute, 22 Oktober, Montag

    Zeit Temperatur Niederschläge Wind Luftdruck Luftfeuchtigkeit
    00:00 +7°C° 0 mm 5 m/S 763 mmHg 83%
    01:00 +7°C° 0 mm 5 m/S 763 mmHg 81%
    02:00 +7°C° 0 mm 5 m/S 763 mmHg 82%
    03:00 +6°C° 0 mm 5 m/S 762 mmHg 83%
    04:00 +6°C° 0 mm 5 m/S 762 mmHg 84%
    05:00 +7°C° 0 mm 5 m/S 762 mmHg 83%
    06:00 +7°C° 0 mm 5 m/S 762 mmHg 83%
    07:00 +7°C° 0 mm 5 m/S 762 mmHg 82%
    08:00 +8°C° 0.3 mm 5 m/S 762 mmHg 84%
    09:00 +8°C° 0.3 mm 5 m/S 762 mmHg 85%
    10:00 +9°C° 0.3 mm 5 m/S 762 mmHg 87%
    11:00 +9°C° 0.3 mm 6 m/S 762 mmHg 82%
    12:00 +10°C° 0.3 mm 6 m/S 762 mmHg 78%
    13:00 +11°C° 0.3 mm 7 m/S 763 mmHg 74%
    14:00 +10°C° 0 mm 6 m/S 763 mmHg 72%
    15:00 +10°C° 0 mm 6 m/S 763 mmHg 70%
    16:00 +9°C° 0 mm 6 m/S 763 mmHg 68%
    17:00 +9°C° 0 mm 6 m/S 763 mmHg 70%
    18:00 +8°C° 0 mm 5 m/S 763 mmHg 71%
    19:00 +7°C° 0 mm 5 m/S 763 mmHg 73%
    20:00 +7°C° 0 mm 5 m/S 763 mmHg 74%
    21:00 +7°C° 0 mm 5 m/S 763 mmHg 75%
    22:00 +7°C° 0 mm 5 m/S 763 mmHg 76%
    23:00 +7°C° 0 mm 6 m/S 763 mmHg 76%

    Morgen, 23 Oktober, Dienstag

    Zeit Temperatur Niederschläge Wind Luftdruck Luftfeuchtigkeit
    00:00 +5°C° 0 mm 6 m/S 762 mmHg 76%
    01:00 +5°C° 0 mm 7 m/S 761 mmHg 77%
    02:00 +5°C° 0.2 mm 7 m/S 760 mmHg 77%
    03:00 +5°C° 0.2 mm 8 m/S 759 mmHg 77%
    04:00 +5°C° 0.2 mm 9 m/S 758 mmHg 78%
    05:00 +5°C° 1.1 mm 10 m/S 757 mmHg 80%
    06:00 +4°C° 1.1 mm 11 m/S 755 mmHg 82%
    07:00 +4°C° 1.1 mm 11 m/S 754 mmHg 84%
    08:00 +5°C° 1.5 mm 12 m/S 753 mmHg 85%
    09:00 +5°C° 1.5 mm 12 m/S 752 mmHg 85%
    10:00 +7°C° 1.5 mm 12 m/S 750 mmHg 86%
    11:00 +8°C° 2.1 mm 12 m/S 750 mmHg 86%
    12:00 +9°C° 2.1 mm 12 m/S 749 mmHg 86%
    13:00 +9°C° 2.1 mm 13 m/S 748 mmHg 86%
    14:00 +9°C° 1 mm 13 m/S 747 mmHg 84%
    15:00 +10°C° 1 mm 13 m/S 747 mmHg 82%
    16:00 +10°C° 1 mm 13 m/S 746 mmHg 80%
    17:00 +10°C° 0.7 mm 13 m/S 746 mmHg 80%
    18:00 +10°C° 0.7 mm 13 m/S 746 mmHg 80%
    19:00 +10°C° 0.7 mm 13 m/S 746 mmHg 80%
    20:00 +9°C° 0.5 mm 13 m/S 745 mmHg 78%
    21:00 +9°C° 0.5 mm 13 m/S 745 mmHg 76%
    22:00 +9°C° 0.5 mm 13 m/S 744 mmHg 74%
    23:00 +8°C° 0.1 mm 13 m/S 745 mmHg 71%

    übermorgen, 24 Oktober, Mittwoch

    Zeit Temperatur Niederschläge Wind Luftdruck Luftfeuchtigkeit
    00:00 +8°C° 0.1 mm 13 m/S 745 mmHg 68%
    01:00 +7°C° 0.1 mm 13 m/S 745 mmHg 66%
    02:00 +7°C° 0.1 mm 12 m/S 746 mmHg 62%
    03:00 +5°C° 0.1 mm 12 m/S 747 mmHg 59%
    04:00 +6°C° 0.1 mm 11 m/S 748 mmHg 55%
    05:00 +6°C° 0 mm 11 m/S 748 mmHg 54%
    06:00 +4°C° 0 mm 11 m/S 749 mmHg 53%
    07:00 +5°C° 0 mm 10 m/S 750 mmHg 52%
    08:00 +5°C° 0 mm 10 m/S 750 mmHg 50%
    09:00 +6°C° 0 mm 10 m/S 751 mmHg 47%
    10:00 +7°C° 0 mm 11 m/S 752 mmHg 45%
    11:00 +7°C° 0 mm 10 m/S 753 mmHg 44%
    12:00 +7°C° 0 mm 10 m/S 753 mmHg 43%
    13:00 +8°C° 0 mm 10 m/S 754 mmHg 42%
    14:00 +7°C° 0 mm 9 m/S 754 mmHg 46%
    15:00 +7°C° 0 mm 8 m/S 754 mmHg 50%
    16:00 +6°C° 0 mm 7 m/S 754 mmHg 54%
    17:00 +6°C° 0 mm 7 m/S 754 mmHg 58%
    18:00 +7°C° 0 mm 6 m/S 754 mmHg 61%
    19:00 +6°C° 0 mm 5 m/S 755 mmHg 65%
    20:00 +6°C° 0 mm 5 m/S 754 mmHg 68%
    21:00 +6°C° 0 mm 5 m/S 754 mmHg 70%
    22:00 +6°C° 0 mm 5 m/S 754 mmHg 73%
    23:00 +6°C° 0.1 mm 5 m/S 753 mmHg 77%

    25 Oktober, Donnerstag

    Zeit Temperatur Niederschläge Wind Luftdruck Luftfeuchtigkeit
    00:00 +7°C° 0.1 mm 6 m/S 753 mmHg 81%
    01:00 +7°C° 0.1 mm 6 m/S 752 mmHg 85%
    02:00 +7°C° 0.6 mm 8 m/S 751 mmHg 85%
    03:00 +8°C° 0.6 mm 9 m/S 750 mmHg 86%
    04:00 +9°C° 0.6 mm 11 m/S 749 mmHg 86%
    05:00 +9°C° 0.2 mm 11 m/S 749 mmHg 86%
    06:00 +9°C° 0.2 mm 11 m/S 749 mmHg 85%
    07:00 +9°C° 0.2 mm 11 m/S 748 mmHg 85%
    08:00 +9°C° 0.2 mm 11 m/S 748 mmHg 81%
    09:00 +9°C° 0.2 mm 11 m/S 749 mmHg 78%
    10:00 +9°C° 0.2 mm 11 m/S 749 mmHg 74%
    11:00 +9°C° 0.1 mm 11 m/S 749 mmHg 72%
    12:00 +9°C° 0.1 mm 11 m/S 749 mmHg 71%
    13:00 +9°C° 0.1 mm 10 m/S 749 mmHg 69%
    14:00 +9°C° 0 mm 10 m/S 750 mmHg 70%
    15:00 +10°C° 0 mm 9 m/S 750 mmHg 71%
    16:00 +8°C° 0 mm 9 m/S 750 mmHg 72%
    17:00 +9°C° 0 mm 8 m/S 750 mmHg 73%
    18:00 +9°C° 0 mm 8 m/S 751 mmHg 73%
    19:00 +9°C° 0 mm 7 m/S 751 mmHg 74%
    20:00 +9°C° 0 mm 7 m/S 751 mmHg 76%
    21:00 +8°C° 0 mm 6 m/S 751 mmHg 77%
    22:00 +8°C° 0 mm 6 m/S 752 mmHg 78%
    23:00 +8°C° 0.1 mm 6 m/S 752 mmHg 79%

    26 Oktober, Freitag

    Zeit Temperatur Niederschläge Wind Luftdruck Luftfeuchtigkeit
    00:00 +8°C° 0.1 mm 5 m/S 751 mmHg 79%
    01:00 +8°C° 0.1 mm 5 m/S 751 mmHg 79%
    02:00 +8°C° 0 mm 5 m/S 751 mmHg 80%
    03:00 +7°C° 0 mm 5 m/S 751 mmHg 81%
    04:00 +7°C° 0 mm 5 m/S 751 mmHg 82%
    05:00 +7°C° 0 mm 4 m/S 751 mmHg 84%
    06:00 +6°C° 0 mm 4 m/S 750 mmHg 86%
    07:00 +6°C° 0 mm 4 m/S 750 mmHg 88%
    08:00 +7°C° 0.1 mm 5 m/S 750 mmHg 88%
    09:00 +8°C° 0.1 mm 5 m/S 749 mmHg 87%
    10:00 +8°C° 0.1 mm 6 m/S 749 mmHg 87%
    11:00 +9°C° 0.1 mm 6 m/S 749 mmHg 83%
    12:00 +10°C° 0.1 mm 6 m/S 748 mmHg 79%
    13:00 +11°C° 0.1 mm 7 m/S 748 mmHg 75%
    14:00 +10°C° 0.1 mm 7 m/S 747 mmHg 76%
    15:00 +10°C° 0.1 mm 7 m/S 747 mmHg 77%
    16:00 +10°C° 0.1 mm 6 m/S 746 mmHg 78%
    17:00 +9°C° 0 mm 7 m/S 746 mmHg 79%
    18:00 +9°C° 0 mm 7 m/S 745 mmHg 80%
    19:00 +8°C° 0 mm 7 m/S 745 mmHg 82%
    20:00 +8°C° 0.1 mm 7 m/S 745 mmHg 82%
    21:00 +8°C° 0.1 mm 7 m/S 745 mmHg 83%
    22:00 +8°C° 0.1 mm 7 m/S 744 mmHg 83%
    23:00 +8°C° 0.2 mm 6 m/S 744 mmHg 84%

    27 Oktober, Samstag

    Zeit Temperatur Niederschläge Wind Luftdruck Luftfeuchtigkeit
    00:00 +8°C° 0.2 mm 6 m/S 744 mmHg 84%
    01:00 +8°C° 0.2 mm 6 m/S 744 mmHg 85%
    02:00 +7°C° 0 mm 5 m/S 744 mmHg 84%
    03:00 +7°C° 0 mm 5 m/S 744 mmHg 84%
    04:00 +7°C° 0 mm 4 m/S 744 mmHg 84%
    05:00 +6°C° 0 mm 4 m/S 744 mmHg 85%
    06:00 +6°C° 0 mm 4 m/S 744 mmHg 86%
    07:00 +5°C° 0 mm 4 m/S 744 mmHg 88%
    08:00 +6°C° 0 mm 4 m/S 744 mmHg 83%
    09:00 +7°C° 0 mm 4 m/S 745 mmHg 79%
    10:00 +7°C° 0 mm 4 m/S 745 mmHg 74%
    11:00 +8°C° 0 mm 4 m/S 745 mmHg 70%
    12:00 +8°C° 0 mm 4 m/S 745 mmHg 66%
    13:00 +10°C° 0 mm 3 m/S 745 mmHg 62%
    14:00 +9°C° 0 mm 3 m/S 745 mmHg 65%
    15:00 +9°C° 0 mm 2 m/S 745 mmHg 67%
    16:00 +8°C° 0 mm 2 m/S 745 mmHg 69%
    17:00 +8°C° 0 mm 2 m/S 745 mmHg 71%
    18:00 +8°C° 0 mm 1 m/S 745 mmHg 72%
    19:00 +8°C° 0 mm 1 m/S 745 mmHg 73%
    20:00 +8°C° 0 mm 1 m/S 745 mmHg 74%
    21:00 +8°C° 0 mm 1 m/S 745 mmHg 75%
    22:00 +7°C° 0 mm 1 m/S 745 mmHg 76%
    23:00 +7°C° 0 mm 1 m/S 745 mmHg 76%

    28 Oktober, Sonntag

    Zeit Temperatur Niederschläge Wind Luftdruck Luftfeuchtigkeit
    00:00 +7°C° 0 mm 1 m/S 745 mmHg 77%
    01:00 +7°C° 0 mm 1 m/S 745 mmHg 77%
    02:00 +6°C° 0 mm 2 m/S 745 mmHg 78%
    03:00 +6°C° 0 mm 2 m/S 745 mmHg 78%
    04:00 +6°C° 0 mm 2 m/S 745 mmHg 78%
    05:00 +6°C° 0.1 mm 2 m/S 745 mmHg 79%
    06:00 +5°C° 0.1 mm 2 m/S 745 mmHg 79%
    07:00 +4°C° 0.1 mm 3 m/S 745 mmHg 80%
    08:00 +5°C° 0.1 mm 3 m/S 746 mmHg 78%
    09:00 +5°C° 0.1 mm 3 m/S 747 mmHg 75%
    10:00 +6°C° 0.1 mm 4 m/S 747 mmHg 73%
    11:00 +6°C° 0 mm 4 m/S 748 mmHg 70%
    12:00 +7°C° 0 mm 4 m/S 748 mmHg 66%
    13:00 +7°C° 0 mm 4 m/S 749 mmHg 62%
    14:00 +7°C° 0 mm 4 m/S 749 mmHg 64%
    15:00 +7°C° 0 mm 4 m/S 749 mmHg 66%
    16:00 +7°C° 0 mm 3 m/S 750 mmHg 68%
    17:00 +7°C° 0 mm 3 m/S 750 mmHg 71%
    18:00 +5°C° 0 mm 3 m/S 751 mmHg 74%
    19:00 +5°C° 0 mm 4 m/S 751 mmHg 76%
    20:00 +5°C° 0 mm 4 m/S 752 mmHg 78%
    21:00 +4°C° 0 mm 4 m/S 752 mmHg 81%
    22:00 +4°C° 0 mm 4 m/S 753 mmHg 83%
    23:00 +4°C° 0.1 mm 4 m/S 753 mmHg 85%
    Mehr zeigen